sat.trackr.live / text

‹ back to catalog

STARLINK-30251

NORAD 57532 · 2023-115M

PAYLOAD ACTIVE UNKNOWN

§ Identity

Operator
Country
US
Launch date
2023-08-08
Launch site
AFWTR
Launch vehicle
Mass (kg)
RCS (m²)

Purposes: comms

External: N2YO · Heavens-Above · Gunter

§ Orbital elements

Epoch: 2026-09-20T22:19:27.672096Z

Period
94.27 min
Inclination
43.0039°
Eccentricity
0.0001312
Mean motion
15.27576753 rev/d
Perigee alt
482.2 km
Apogee alt
484.0 km
Semi-major
6,861.2 km
B*
2.6465e-5
RAAN
338.7452°
Arg perigee
276.7943°
Mean anomaly
83.2760°
Rev number
17,221

§ Raw data

STARLINK-302511 57532U 23115M   26263.93018139  .00000466  00000+0  26465-4 0  99992 57532  43.0039 338.7452 0001312 276.7943  83.2760 15.27576753172217

JSON: /api/v1/satellites/57532 · /tle

For live sub-satellite position, see the globe view (requires WebGL).

§ Visibility from observer

Set your observer location to see the next 7 days of passes ≥ 10°. The values pass through the URL so the page stays shareable.

No JS? Fill the form by hand. The geolocation button needs JavaScript.